| time (UTC) | temp F | wind direction | speed knots | gust knots | rain 1hr in | rain 24hr in | rain mn in | humidity % | barometer mb |
| 20260508054530 | 48 | 110 | 0.0 | 2.6 | 0.00 | 0.09 | 0.00 | 86 | 1012.2 |
| 20260508054016 | 48 | 0 | 0.0 | 2.6 | 0.00 | 0.09 | 0.00 | 86 | 1012.1 |
| 20260508053513 | 48 | 113 | 0.0 | 2.6 | 0.00 | 0.09 | 0.00 | 86 | 1012.2 |
| 20260508053032 | 47 | 0 | 0.0 | 2.6 | 0.00 | 0.09 | 0.00 | 86 | 1012.3 |
| 20260508052518 | 47 | 111 | 0.0 | 2.6 | 0.00 | 0.09 | 0.00 | 87 | 1012.3 |
| 20260508052015 | 47 | 113 | 0.0 | 2.6 | 0.00 | 0.09 | 0.00 | 87 | 1012.2 |
| 20260508051531 | 47 | 0 | 0.0 | 3.5 | 0.00 | 0.09 | 0.00 | 87 | 1012.1 |
| 20260508051015 | 47 | 0 | 0.0 | 3.5 | 0.00 | 0.09 | 0.00 | 87 | 1012.1 |
| 20260508050516 | 47 | 113 | 0.0 | 3.5 | 0.00 | 0.09 | 0.00 | 87 | 1012.2 |
| 20260508050034 | 46 | 114 | 0.0 | 2.6 | 0.00 | 0.09 | 0.00 | 87 | 1012.0 |
| 20260508045515 | 46 | 0 | 0.0 | 2.6 | 0.00 | 0.09 | 0.00 | 87 | 1012.0 |
| 20260508045016 | 46 | 0 | 0.0 | 5.2 | 0.00 | 0.09 | 0.00 | 87 | 1011.9 |
| 20260508044532 | 46 | 111 | 0.9 | 5.2 | 0.00 | 0.09 | 0.00 | 88 | 1011.8 |
| 20260508044015 | 46 | 112 | 0.9 | 3.5 | 0.00 | 0.09 | 0.00 | 88 | 1011.7 |
| 20260508043519 | 46 | 104 | 0.0 | 1.7 | 0.00 | 0.09 | 0.00 | 88 | 1011.6 |
| 20260508043033 | 46 | 0 | 0.0 | 0.0 | 0.00 | 0.09 | 0.00 | 88 | 1011.7 |
| 20260508042515 | 46 | 0 | 0.0 | 0.0 | 0.00 | 0.09 | 0.00 | 87 | 1011.7 |
| 20260508042015 | 46 | 0 | 0.0 | 0.0 | 0.00 | 0.09 | 0.00 | 87 | 1011.7 |
| 20260508041529 | 46 | 0 | 0.0 | 2.6 | 0.00 | 0.09 | 0.00 | 87 | 1011.6 |
| 20260508041015 | 46 | 0 | 0.0 | 3.5 | 0.00 | 0.09 | 0.00 | 87 | 1011.6 |
| 20260508040515 | 46 | 0 | 0.0 | 3.5 | 0.00 | 0.09 | 0.00 | 87 | 1011.5 |
| 20260508040037 | 46 | 0 | 0.0 | 1.7 | 0.00 | 0.09 | 0.00 | 87 | 1011.5 |
| 20260508035520 | 46 | 0 | 0.0 | 3.5 | 0.00 | 0.09 | 0.00 | 87 | 1011.6 |
| 20260508035016 | 46 | 103 | 0.9 | 3.5 | 0.00 | 0.09 | 0.00 | 87 | 1011.4 |
| 20260508034530 | 46 | 105 | 0.0 | 3.5 | 0.00 | 0.09 | 0.00 | 87 | 1011.4 |
| 20260508034016 | 46 | 96 | 0.9 | 3.5 | 0.00 | 0.09 | 0.00 | 87 | 1011.5 |
| 20260508033514 | 46 | 0 | 0.9 | 3.5 | 0.00 | 0.09 | 0.00 | 87 | 1011.5 |
| 20260508033032 | 46 | 0 | 0.0 | 2.6 | 0.00 | 0.09 | 0.00 | 87 | 1011.6 |
| 20260508032516 | 47 | 0 | 0.0 | 4.3 | 0.00 | 0.09 | 0.00 | 87 | 1011.6 |
| 20260508032016 | 47 | 0 | 0.0 | 4.3 | 0.00 | 0.09 | 0.00 | 87 | 1011.4 |
| 20260508031530 | 46 | 76 | 0.9 | 4.3 | 0.00 | 0.09 | 0.00 | 87 | 1011.4 |
| 20260508031015 | 46 | 0 | 0.0 | 3.5 | 0.00 | 0.09 | 0.00 | 88 | 1011.5 |
| 20260508030515 | 46 | 83 | 0.0 | 3.5 | 0.00 | 0.09 | 0.00 | 87 | 1011.4 |
| 20260508030034 | 46 | 79 | 0.9 | 3.5 | 0.00 | 0.09 | 0.00 | 88 | 1011.3 |
| 20260508025512 | 46 | 0 | 0.9 | 3.5 | 0.00 | 0.09 | 0.00 | 88 | 1011.4 |
| 20260508025016 | 46 | 0 | 0.0 | 3.5 | 0.00 | 0.09 | 0.00 | 88 | 1011.4 |
| 20260508024536 | 46 | 0 | 0.9 | 3.5 | 0.00 | 0.09 | 0.00 | 88 | 1011.5 |
| 20260508024012 | 46 | 0 | 0.0 | 3.5 | 0.00 | 0.09 | 0.00 | 88 | 1011.4 |
| 20260508023516 | 46 | 0 | 0.9 | 3.5 | 0.00 | 0.09 | 0.00 | 88 | 1011.4 |
| 20260508023035 | 46 | 0 | 0.0 | 0.9 | 0.00 | 0.09 | 0.00 | 88 | 1011.5 |
| 20260508022517 | 46 | 0 | 0.0 | 3.5 | 0.00 | 0.09 | 0.00 | 88 | 1011.7 |
| 20260508022018 | 46 | 67 | 0.0 | 3.5 | 0.00 | 0.09 | 0.00 | 88 | 1011.6 |
| 20260508021531 | 46 | 65 | 0.0 | 3.5 | 0.00 | 0.09 | 0.00 | 88 | 1011.8 |
| 20260508021015 | 45 | 0 | 0.0 | 2.6 | 0.00 | 0.09 | 0.00 | 88 | 1011.8 |
| 20260508020515 | 46 | 88 | 0.0 | 2.6 | 0.00 | 0.09 | 0.00 | 88 | 1011.9 |
| 20260508020031 | 46 | 0 | 0.0 | 0.9 | 0.00 | 0.09 | 0.00 | 88 | 1011.9 |
| 20260508015515 | 46 | 0 | 0.0 | 0.0 | 0.00 | 0.09 | 0.00 | 87 | 1011.9 |
| 20260508015015 | 47 | 0 | 0.0 | 0.0 | 0.00 | 0.09 | 0.00 | 87 | 1012.1 |
| 20260508014533 | 47 | 0 | 0.0 | 1.7 | 0.00 | 0.09 | 0.00 | 87 | 1011.9 |
| 20260508014013 | 47 | 0 | 0.0 | 1.7 | 0.00 | 0.09 | 0.00 | 87 | 1011.9 |
| 20260508013514 | 47 | 123 | 0.0 | 1.7 | 0.00 | 0.09 | 0.00 | 87 | 1012.0 |
| 20260508013030 | 47 | 0 | 0.0 | 1.7 | 0.00 | 0.09 | 0.00 | 87 | 1012.0 |
| 20260508012518 | 47 | 0 | 0.0 | 1.7 | 0.00 | 0.09 | 0.00 | 87 | 1012.2 |
| 20260508012015 | 47 | 0 | 0.0 | 1.7 | 0.00 | 0.09 | 0.00 | 87 | 1012.3 |
| 20260508011547 | 47 | 0 | 0.0 | 2.6 | 0.00 | 0.09 | 0.00 | 87 | 1012.3 |
| 20260508011011 | 47 | 124 | 0.0 | 2.6 | 0.00 | 0.09 | 0.00 | 87 | 1012.4 |
| 20260508010515 | 47 | 0 | 0.0 | 3.5 | 0.00 | 0.09 | 0.00 | 88 | 1012.5 |
| 20260508010033 | 47 | 123 | 0.9 | 3.5 | 0.00 | 0.09 | 0.00 | 88 | 1012.5 |
| 20260508005520 | 47 | 0 | 0.0 | 3.5 | 0.00 | 0.09 | 0.00 | 88 | 1012.8 |
| 20260508005016 | 47 | 0 | 0.9 | 3.5 | 0.00 | 0.09 | 0.00 | 88 | 1012.8 |
| 20260508004540 | 47 | 0 | 0.0 | 1.7 | 0.00 | 0.09 | 0.00 | 88 | 1012.9 |
| 20260508004016 | 47 | 0 | 0.0 | 2.6 | 0.00 | 0.09 | 0.00 | 88 | 1012.8 |
| 20260508003515 | 47 | 0 | 0.0 | 4.3 | 0.00 | 0.09 | 0.00 | 88 | 1013.0 |
| 20260508003037 | 47 | 0 | 0.9 | 4.3 | 0.00 | 0.09 | 0.00 | 89 | 1013.0 |
| 20260508002516 | 47 | 133 | 0.9 | 4.3 | 0.00 | 0.09 | 0.00 | 89 | 1013.0 |
| 20260508002016 | 47 | 146 | 0.0 | 2.6 | 0.00 | 0.09 | 0.00 | 89 | 1013.0 |
| 20260508001536 | 47 | 0 | 0.0 | 1.7 | 0.00 | 0.09 | 0.00 | 89 | 1013.1 |
| 20260508001015 | 47 | 0 | 0.0 | 1.7 | 0.00 | 0.09 | 0.00 | 89 | 1013.1 |
| 20260508000520 | 47 | 0 | 0.0 | 1.7 | 0.00 | 0.09 | 0.00 | 89 | 1013.2 |
| 20260508000029 | 47 | 146 | 0.0 | 1.7 | 0.00 | 0.09 | 0.00 | 89 | 1013.3 |
| 20260507235516 | 47 | 0 | 0.0 | 1.7 | 0.00 | 0.09 | 0.00 | 89 | 1013.3 |
| 20260507235017 | 47 | 0 | 0.0 | 0.9 | 0.00 | 0.09 | 0.00 | 89 | 1013.4 |
| 20260507234532 | 47 | 0 | 0.0 | 1.7 | 0.00 | 0.09 | 0.00 | 89 | 1013.4 |
| 20260507234013 | 47 | 0 | 0.0 | 1.7 | 0.00 | 0.09 | 0.00 | 89 | 1013.4 |
| 20260507233513 | 47 | 0 | 0.0 | 0.9 | 0.00 | 0.09 | 0.00 | 89 | 1013.5 |
| 20260507233032 | 47 | 0 | 0.0 | 0.9 | 0.00 | 0.09 | 0.00 | 89 | 1013.5 |
| 20260507232517 | 47 | 0 | 0.0 | 0.0 | 0.00 | 0.09 | 0.00 | 89 | 1013.6 |
| 20260507232015 | 46 | 0 | 0.0 | 0.0 | 0.00 | 0.09 | 0.00 | 88 | 1013.5 |
| 20260507231530 | 47 | 0 | 0.0 | 0.0 | 0.00 | 0.09 | 0.00 | 88 | 1013.5 |
| 20260507231015 | 47 | 0 | 0.0 | 0.0 | 0.00 | 0.09 | 0.00 | 88 | 1013.6 |
| 20260507230514 | 47 | 0 | 0.0 | 0.9 | 0.00 | 0.09 | 0.00 | 87 | 1013.6 |
| 20260507230029 | 47 | 0 | 0.0 | 0.9 | 0.00 | 0.09 | 0.00 | 87 | 1013.7 |
| 20260507225513 | 48 | 0 | 0.0 | 0.0 | 0.00 | 0.09 | 0.00 | 87 | 1013.7 |
| 20260507225017 | 48 | 0 | 0.0 | 1.7 | 0.00 | 0.09 | 0.00 | 86 | 1013.7 |
| 20260507224530 | 48 | 0 | 0.0 | 2.6 | 0.00 | 0.09 | 0.00 | 86 | 1013.7 |
| 20260507224012 | 48 | 0 | 0.0 | 2.6 | 0.00 | 0.09 | 0.00 | 86 | 1013.7 |
| 20260507223514 | 48 | 146 | 0.9 | 2.6 | 0.00 | 0.09 | 0.00 | 86 | 1013.7 |
| 20260507223030 | 48 | 0 | 0.9 | 4.3 | 0.00 | 0.09 | 0.00 | 86 | 1013.7 |
| 20260507222515 | 48 | 0 | 0.9 | 5.2 | 0.00 | 0.09 | 0.00 | 86 | 1013.6 |
| 20260507222014 | 49 | 151 | 1.7 | 5.2 | 0.00 | 0.09 | 0.00 | 86 | 1013.8 |
| 20260507221531 | 49 | 158 | 1.7 | 4.3 | 0.00 | 0.09 | 0.00 | 86 | 1013.7 |
| 20260507221012 | 49 | 143 | 0.9 | 4.3 | 0.00 | 0.09 | 0.00 | 86 | 1013.6 |
| 20260507220513 | 49 | 144 | 0.9 | 4.3 | 0.00 | 0.09 | 0.00 | 85 | 1013.7 |
| 20260507220033 | 49 | 142 | 1.7 | 4.3 | 0.00 | 0.09 | 0.00 | 85 | 1013.7 |
| 20260507215513 | 49 | 141 | 1.7 | 4.3 | 0.00 | 0.09 | 0.09 | 86 | 1013.6 |
| 20260507215013 | 49 | 142 | 1.7 | 6.1 | 0.00 | 0.09 | 0.09 | 85 | 1013.6 |
| 20260507214530 | 49 | 148 | 1.7 | 6.1 | 0.00 | 0.09 | 0.09 | 85 | 1013.6 |
| 20260507214014 | 49 | 155 | 1.7 | 5.2 | 0.00 | 0.09 | 0.09 | 86 | 1013.5 |
| 20260507213515 | 49 | 153 | 1.7 | 5.2 | 0.00 | 0.09 | 0.09 | 86 | 1013.5 |
| 20260507213033 | 49 | 140 | 1.7 | 4.3 | 0.00 | 0.09 | 0.09 | 85 | 1013.4 |
| 20260507212512 | 49 | 132 | 0.9 | 4.3 | 0.00 | 0.09 | 0.09 | 85 | 1013.3 |
| 20260507212013 | 49 | 133 | 1.7 | 3.5 | 0.00 | 0.09 | 0.09 | 85 | 1013.4 |
| 20260507211532 | 49 | 0 | 1.7 | 3.5 | 0.00 | 0.09 | 0.09 | 84 | 1013.3 |
| 20260507211015 | 49 | 138 | 1.7 | 3.5 | 0.00 | 0.09 | 0.09 | 84 | 1013.3 |
| 20260507210514 | 49 | 140 | 1.7 | 4.3 | 0.00 | 0.09 | 0.09 | 84 | 1013.3 |
| 20260507210032 | 49 | 142 | 0.9 | 4.3 | 0.00 | 0.09 | 0.09 | 84 | 1013.2 |
| 20260507205513 | 49 | 360 | 1.7 | 4.3 | 0.00 | 0.09 | 0.09 | 83 | 1013.1 |
| 20260507205015 | 49 | 145 | 0.9 | 2.6 | 0.00 | 0.09 | 0.09 | 83 | 1013.0 |
| 20260507204530 | 49 | 146 | 0.0 | 4.3 | 0.00 | 0.09 | 0.09 | 83 | 1012.8 |
| 20260507204015 | 49 | 0 | 0.9 | 5.2 | 0.00 | 0.09 | 0.09 | 82 | 1012.7 |
| 20260507203516 | 49 | 148 | 0.9 | 5.2 | 0.00 | 0.09 | 0.09 | 82 | 1012.6 |
| 20260507203029 | 49 | 149 | 1.7 | 6.1 | 0.00 | 0.09 | 0.09 | 83 | 1012.5 |
| 20260507202514 | 50 | 157 | 2.6 | 6.1 | 0.00 | 0.09 | 0.09 | 83 | 1012.5 |
| 20260507202014 | 50 | 144 | 1.7 | 4.3 | 0.00 | 0.09 | 0.09 | 83 | 1012.4 |
| 20260507201532 | 50 | 144 | 0.9 | 5.2 | 0.00 | 0.09 | 0.09 | 83 | 1012.4 |
| 20260507201014 | 49 | 143 | 1.7 | 5.2 | 0.00 | 0.09 | 0.09 | 83 | 1012.2 |
| 20260507200512 | 49 | 115 | 0.9 | 2.6 | 0.00 | 0.09 | 0.09 | 84 | 1012.1 |
| 20260507200036 | 50 | 0 | 0.0 | 2.6 | 0.00 | 0.09 | 0.09 | 84 | 1012.1 |
| 20260507195512 | 50 | 104 | 0.0 | 2.6 | 0.00 | 0.09 | 0.09 | 84 | 1012.0 |
| 20260507195015 | 50 | 0 | 0.0 | 2.6 | 0.00 | 0.09 | 0.09 | 84 | 1012.0 |
| 20260507194532 | 50 | 0 | 0.0 | 2.6 | 0.00 | 0.09 | 0.09 | 83 | 1011.8 |
| 20260507194015 | 50 | 58 | 0.9 | 2.6 | 0.00 | 0.09 | 0.09 | 83 | 1011.8 |
| 20260507193515 | 51 | 0 | 0.0 | 1.7 | 0.00 | 0.09 | 0.09 | 83 | 1011.8 |
| 20260507193033 | 51 | 0 | 0.0 | 1.7 | 0.00 | 0.09 | 0.09 | 82 | 1011.8 |
| 20260507192515 | 51 | 0 | 0.0 | 1.7 | 0.00 | 0.09 | 0.09 | 81 | 1011.7 |
| 20260507192012 | 52 | 0 | 0.0 | 1.7 | 0.00 | 0.09 | 0.09 | 81 | 1011.6 |
| 20260507191532 | 52 | 0 | 0.0 | 1.7 | 0.00 | 0.09 | 0.09 | 80 | 1011.6 |
| 20260507191011 | 52 | 65 | 0.0 | 0.9 | 0.00 | 0.09 | 0.09 | 80 | 1011.5 |
| 20260507190515 | 53 | 0 | 0.0 | 2.6 | 0.00 | 0.09 | 0.09 | 79 | 1011.5 |
| 20260507190038 | 53 | 0 | 0.0 | 3.5 | 0.00 | 0.09 | 0.09 | 76 | 1011.3 |
| 20260507185512 | 53 | 63 | 0.9 | 3.5 | 0.00 | 0.09 | 0.09 | 76 | 1011.3 |
| 20260507185011 | 54 | 20 | 0.0 | 2.6 | 0.00 | 0.09 | 0.09 | 78 | 1011.2 |
| 20260507184537 | 54 | 333 | 0.9 | 2.6 | 0.00 | 0.09 | 0.09 | 79 | 1011.2 |
| 20260507184014 | 54 | 0 | 0.0 | 4.3 | 0.00 | 0.09 | 0.09 | 81 | 1011.2 |
| 20260507183513 | 54 | 0 | 0.9 | 4.3 | 0.00 | 0.09 | 0.09 | 80 | 1011.1 |
| 20260507183037 | 54 | 321 | 1.7 | 4.3 | 0.00 | 0.09 | 0.09 | 79 | 1011.0 |
| 20260507182514 | 55 | 344 | 0.0 | 4.3 | 0.00 | 0.09 | 0.09 | 78 | 1010.9 |
| 20260507182016 | 55 | 360 | 1.7 | 5.2 | 0.00 | 0.09 | 0.09 | 76 | 1010.8 |
| 20260507181529 | 55 | 32 | 1.7 | 7.0 | 0.00 | 0.09 | 0.09 | 77 | 1010.8 |
| 20260507181013 | 55 | 0 | 3.5 | 7.0 | 0.00 | 0.09 | 0.09 | 77 | 1010.7 |
| 20260507180521 | 55 | 35 | 2.6 | 7.0 | 0.00 | 0.09 | 0.09 | 78 | 1010.7 |
| 20260507180033 | 55 | 351 | 2.6 | 7.0 | 0.00 | 0.09 | 0.09 | 76 | 1010.9 |
| 20260507175515 | 55 | 348 | 1.7 | 5.2 | 0.00 | 0.09 | 0.09 | 76 | 1010.9 |
| 20260507175017 | 55 | 319 | 1.7 | 5.2 | 0.00 | 0.09 | 0.09 | 76 | 1010.9 |
| 20260507174537 | 55 | 9 | 0.9 | 4.3 | 0.00 | 0.09 | 0.09 | 77 | 1011.1 |
| 20260507174013 | 55 | 0 | 0.9 | 5.2 | 0.00 | 0.09 | 0.09 | 79 | 1011.0 |
| 20260507173514 | 54 | 0 | 0.9 | 7.0 | 0.00 | 0.09 | 0.09 | 81 | 1010.9 |
| 20260507173034 | 54 | 0 | 2.6 | 7.0 | 0.00 | 0.09 | 0.09 | 82 | 1010.7 |
| 20260507172517 | 53 | 345 | 2.6 | 8.7 | 0.00 | 0.09 | 0.09 | 83 | 1010.8 |
| 20260507172014 | 53 | 331 | 2.6 | 8.7 | 0.00 | 0.09 | 0.09 | 83 | 1011.0 |
| 20260507171532 | 53 | 321 | 2.6 | 8.7 | 0.00 | 0.09 | 0.09 | 83 | 1011.1 |
| 20260507171015 | 53 | 302 | 0.9 | 5.2 | 0.00 | 0.09 | 0.09 | 83 | 1011.2 |
| 20260507170517 | 53 | 325 | 0.9 | 4.3 | 0.00 | 0.09 | 0.09 | 82 | 1011.0 |
| 20260507170031 | 53 | 321 | 1.7 | 8.7 | 0.00 | 0.09 | 0.09 | 80 | 1010.9 |
| 20260507165515 | 53 | 331 | 0.9 | 8.7 | 0.00 | 0.09 | 0.09 | 75 | 1011.0 |
| 20260507165015 | 53 | 123 | 3.5 | 8.7 | 0.00 | 0.09 | 0.09 | 80 | 1010.8 |
| 20260507164531 | 53 | 205 | 2.6 | 4.3 | 0.00 | 0.09 | 0.09 | 82 | 1011.1 |
| 20260507164016 | 53 | 110 | 0.9 | 5.2 | 0.00 | 0.09 | 0.09 | 81 | 1011.1 |
| 20260507163513 | 53 | 0 | 0.0 | 5.2 | 0.00 | 0.09 | 0.09 | 79 | 1011.1 |
| 20260507163033 | 53 | 324 | 1.7 | 5.2 | 0.00 | 0.09 | 0.09 | 81 | 1011.1 |
| 20260507162513 | 53 | 332 | 0.0 | 5.2 | 0.00 | 0.09 | 0.09 | 81 | 1011.1 |
| 20260507162012 | 52 | 0 | 0.9 | 5.2 | 0.00 | 0.09 | 0.09 | 81 | 1011.1 |
| 20260507161530 | 53 | 157 | 0.0 | 4.3 | 0.00 | 0.09 | 0.09 | 80 | 1010.9 |
| 20260507161014 | 52 | 185 | 0.9 | 8.7 | 0.00 | 0.09 | 0.09 | 81 | 1010.8 |
| 20260507160514 | 52 | 184 | 3.5 | 9.6 | 0.00 | 0.09 | 0.09 | 80 | 1010.8 |
| 20260507160034 | 52 | 178 | 5.2 | 10.4 | 0.00 | 0.09 | 0.09 | 80 | 1011.0 |
| 20260507155513 | 52 | 159 | 5.2 | 12.2 | 0.01 | 0.09 | 0.09 | 81 | 1011.0 |
| 20260507155013 | 53 | 178 | 5.2 | 12.2 | 0.02 | 0.09 | 0.09 | 81 | 1011.0 |
| 20260507154532 | 52 | 224 | 4.3 | 13.0 | 0.02 | 0.09 | 0.09 | 83 | 1011.1 |
| 20260507154014 | 52 | 170 | 4.3 | 13.0 | 0.03 | 0.09 | 0.09 | 86 | 1010.8 |
| 20260507153511 | 52 | 162 | 4.3 | 10.4 | 0.02 | 0.08 | 0.08 | 86 | 1011.1 |
| 20260507153033 | 52 | 162 | 4.3 | 8.7 | 0.03 | 0.08 | 0.08 | 86 | 1011.2 |
| 20260507152512 | 52 | 161 | 3.5 | 6.1 | 0.03 | 0.08 | 0.08 | 87 | 1011.2 |
| 20260507152014 | 52 | 155 | 2.6 | 7.0 | 0.04 | 0.08 | 0.08 | 87 | 1011.1 |
| 20260507151531 | 52 | 143 | 3.5 | 7.8 | 0.04 | 0.08 | 0.08 | 87 | 1011.2 |
| 20260507151014 | 52 | 134 | 4.3 | 7.8 | 0.05 | 0.08 | 0.08 | 88 | 1011.2 |
| 20260507150514 | 52 | 148 | 1.7 | 8.7 | 0.05 | 0.08 | 0.08 | 88 | 1011.2 |
| 20260507150033 | 51 | 132 | 4.3 | 11.3 | 0.06 | 0.08 | 0.08 | 88 | 1011.4 |
| 20260507145513 | 51 | 141 | 5.2 | 11.3 | 0.06 | 0.07 | 0.07 | 88 | 1011.4 |
| 20260507145015 | 51 | 115 | 6.1 | 11.3 | 0.05 | 0.07 | 0.07 | 88 | 1011.4 |
| 20260507144534 | 51 | 132 | 6.1 | 11.3 | 0.05 | 0.07 | 0.07 | 88 | 1011.5 |
| 20260507144015 | 51 | 132 | 6.1 | 10.4 | 0.04 | 0.06 | 0.06 | 88 | 1011.6 |
| 20260507143516 | 51 | 126 | 4.3 | 8.7 | 0.04 | 0.06 | 0.06 | 87 | 1011.8 |
| 20260507143032 | 51 | 158 | 3.5 | 8.7 | 0.03 | 0.04 | 0.04 | 87 | 1012.2 |
| 20260507142513 | 51 | 360 | 3.5 | 8.7 | 0.03 | 0.04 | 0.04 | 87 | 1012.1 |
| 20260507142014 | 51 | 136 | 2.6 | 8.7 | 0.02 | 0.03 | 0.03 | 87 | 1011.9 |
| 20260507141530 | 51 | 128 | 3.5 | 10.4 | 0.02 | 0.03 | 0.03 | 86 | 1011.7 |
| 20260507141013 | 51 | 121 | 5.2 | 13.0 | 0.01 | 0.03 | 0.03 | 85 | 1011.7 |
| 20260507140515 | 52 | 135 | 6.1 | 13.0 | 0.01 | 0.03 | 0.03 | 85 | 1011.9 |
| 20260507140036 | 52 | 144 | 6.1 | 12.2 | 0.01 | 0.02 | 0.02 | 85 | 1011.8 |
| 20260507135512 | 52 | 133 | 6.1 | 11.3 | 0.01 | 0.01 | 0.01 | 84 | 1011.8 |
| 20260507135015 | 52 | 130 | 5.2 | 10.4 | 0.01 | 0.01 | 0.01 | 84 | 1011.8 |
| 20260507134528 | 52 | 139 | 5.2 | 10.4 | 0.01 | 0.01 | 0.01 | 84 | 1011.7 |
| 20260507134014 | 53 | 157 | 4.3 | 10.4 | 0.01 | 0.01 | 0.01 | 84 | 1011.8 |
| 20260507133515 | 52 | 144 | 4.3 | 12.2 | 0.01 | 0.01 | 0.01 | 83 | 1011.7 |
| 20260507133030 | 52 | 132 | 6.1 | 12.2 | 0.01 | 0.01 | 0.01 | 84 | 1011.5 |
| 20260507132513 | 52 | 119 | 5.2 | 11.3 | 0.01 | 0.01 | 0.01 | 84 | 1011.6 |
| 20260507132013 | 52 | 140 | 5.2 | 12.2 | 0.01 | 0.01 | 0.01 | 84 | 1011.5 |
| 20260507131535 | 53 | 120 | 5.2 | 12.2 | 0.01 | 0.01 | 0.01 | 84 | 1011.5 |
| 20260507131015 | 53 | 101 | 4.3 | 10.4 | 0.01 | 0.01 | 0.01 | 83 | 1011.6 |
| 20260507130517 | 53 | 128 | 4.3 | 10.4 | 0.01 | 0.01 | 0.01 | 82 | 1011.6 |
| 20260507130034 | 54 | 69 | 5.2 | 10.4 | 0.00 | 0.00 | 0.00 | 80 | 1011.5 |
| 20260507125517 | 55 | 132 | 3.5 | 10.4 | 0.00 | 0.00 | 0.00 | 76 | 1011.3 |
| 20260507125015 | 56 | 128 | 4.3 | 13.0 | 0.00 | 0.00 | 0.00 | 72 | 1011.4 |
| 20260507124536 | 57 | 116 | 6.1 | 13.9 | 0.00 | 0.00 | 0.00 | 68 | 1011.6 |
| 20260507124014 | 58 | 159 | 5.2 | 14.8 | 0.00 | 0.00 | 0.00 | 66 | 1011.6 |
| 20260507123514 | 59 | 178 | 3.5 | 14.8 | 0.00 | 0.00 | 0.00 | 67 | 1011.4 |
| 20260507123033 | 59 | 142 | 0.9 | 4.3 | 0.00 | 0.00 | 0.00 | 68 | 1011.1 |
| 20260507122513 | 59 | 141 | 2.6 | 7.8 | 0.00 | 0.00 | 0.00 | 66 | 1010.9 |
| 20260507122015 | 60 | 0 | 0.0 | 7.8 | 0.00 | 0.00 | 0.00 | 67 | 1010.9 |
| 20260507121538 | 60 | 0 | 0.9 | 7.8 | 0.00 | 0.00 | 0.00 | 65 | 1010.7 |
| 20260507121021 | 61 | 0 | 1.7 | 5.2 | 0.00 | 0.00 | 0.00 | 65 | 1010.9 |
| 20260507120514 | 61 | 0 | 0.0 | 5.2 | 0.00 | 0.00 | 0.00 | 65 | 1010.9 |
| 20260507120030 | 61 | 0 | 0.0 | 2.6 | 0.00 | 0.00 | 0.00 | 65 | 1010.7 |
| 20260507115514 | 61 | 0 | 0.0 | 2.6 | 0.00 | 0.00 | 0.00 | 63 | 1010.7 |
| 20260507115015 | 63 | 0 | 0.0 | 7.0 | 0.00 | 0.00 | 0.00 | 61 | 1010.7 |
| 20260507114608 | 63 | 0 | 2.6 | 7.0 | 0.00 | 0.00 | 0.00 | 61 | 1010.8 |
| 20260507114016 | 64 | 0 | 0.9 | 6.1 | 0.00 | 0.00 | 0.00 | 63 | 1010.8 |
| 20260507113517 | 62 | 286 | 0.9 | 6.1 | 0.00 | 0.00 | 0.00 | 64 | 1010.9 |
| 20260507113035 | 61 | 0 | 0.9 | 5.2 | 0.00 | 0.00 | 0.00 | 72 | 1011.1 |
| 20260507112516 | 59 | 115 | 0.9 | 6.1 | 0.00 | 0.00 | 0.00 | 67 | 1011.3 |
| 20260507112017 | 59 | 93 | 1.7 | 6.1 | 0.00 | 0.00 | 0.00 | 67 | 1011.4 |
| 20260507111533 | 59 | 111 | 0.0 | 7.0 | 0.00 | 0.00 | 0.00 | 68 | 1011.4 |
| 20260507111016 | 59 | 0 | 0.9 | 7.0 | 0.00 | 0.00 | 0.00 | 69 | 1011.5 |
| 20260507110517 | 59 | 121 | 2.6 | 7.0 | 0.00 | 0.00 | 0.00 | 67 | 1011.6 |
| 20260507110032 | 60 | 0 | 0.9 | 7.0 | 0.00 | 0.00 | 0.00 | 64 | 1011.7 |
| 20260507105515 | 61 | 115 | 0.9 | 7.0 | 0.00 | 0.00 | 0.00 | 70 | 1011.7 |
| 20260507105016 | 60 | 0 | 0.0 | 6.1 | 0.00 | 0.00 | 0.00 | 67 | 1011.9 |
| 20260507104532 | 59 | 117 | 0.0 | 7.0 | 0.00 | 0.00 | 0.00 | 69 | 1011.9 |
| 20260507104018 | 59 | 103 | 3.5 | 7.0 | 0.00 | 0.00 | 0.00 | 68 | 1012.0 |
| 20260507103516 | 59 | 138 | 0.9 | 5.2 | 0.00 | 0.00 | 0.00 | 68 | 1012.0 |
| 20260507103030 | 60 | 194 | 0.9 | 7.8 | 0.00 | 0.00 | 0.00 | 67 | 1012.1 |
| 20260507102518 | 60 | 96 | 3.5 | 7.8 | 0.00 | 0.00 | 0.00 | 66 | 1011.9 |
| 20260507102017 | 60 | 90 | 0.9 | 7.0 | 0.00 | 0.00 | 0.00 | 66 | 1011.9 |
| 20260507101543 | 62 | 86 | 0.9 | 7.0 | 0.00 | 0.00 | 0.00 | 64 | 1012.1 |
| 20260507101017 | 61 | 175 | 2.6 | 7.0 | 0.00 | 0.00 | 0.00 | 66 | 1012.2 |
| 20260507100516 | 60 | 0 | 0.9 | 7.0 | 0.00 | 0.00 | 0.00 | 66 | 1012.3 |
| 20260507100035 | 61 | 113 | 1.7 | 5.2 | 0.00 | 0.00 | 0.00 | 70 | 1012.3 |
| 20260507095516 | 59 | 0 | 1.7 | 5.2 | 0.00 | 0.00 | 0.00 | 67 | 1012.4 |
| 20260507095015 | 59 | 0 | 0.0 | 6.1 | 0.00 | 0.00 | 0.00 | 69 | 1012.4 |
| 20260507094533 | 58 | 128 | 0.9 | 6.1 | 0.00 | 0.00 | 0.00 | 73 | 1012.4 |
| 20260507094016 | 57 | 131 | 1.7 | 6.1 | 0.00 | 0.00 | 0.00 | 76 | 1012.4 |
| 20260507093516 | 57 | 196 | 1.7 | 4.3 | 0.00 | 0.00 | 0.00 | 74 | 1012.4 |
| 20260507093037 | 57 | 163 | 0.9 | 6.1 | 0.00 | 0.00 | 0.00 | 76 | 1012.2 |
| 20260507092516 | 56 | 138 | 2.6 | 7.0 | 0.00 | 0.00 | 0.00 | 76 | 1012.2 |
| 20260507092016 | 55 | 134 | 2.6 | 10.4 | 0.00 | 0.00 | 0.00 | 75 | 1012.3 |
| 20260507091530 | 55 | 130 | 1.7 | 10.4 | 0.00 | 0.00 | 0.00 | 75 | 1012.2 |
| 20260507091016 | 55 | 103 | 5.2 | 7.8 | 0.00 | 0.00 | 0.00 | 76 | 1012.1 |
| 20260507090515 | 56 | 113 | 3.5 | 7.8 | 0.00 | 0.00 | 0.00 | 72 | 1012.1 |
| 20260507090032 | 56 | 88 | 2.6 | 7.0 | 0.00 | 0.00 | 0.00 | 71 | 1012.2 |
| 20260507085516 | 56 | 0 | 0.9 | 5.2 | 0.00 | 0.00 | 0.00 | 70 | 1012.2 |
| 20260507085017 | 56 | 0 | 0.9 | 5.2 | 0.00 | 0.00 | 0.00 | 71 | 1012.3 |
| 20260507084529 | 56 | 0 | 0.9 | 5.2 | 0.00 | 0.00 | 0.00 | 70 | 1012.3 |
| 20260507084022 | 56 | 80 | 1.7 | 4.3 | 0.00 | 0.00 | 0.00 | 73 | 1012.2 |
| 20260507083516 | 55 | 0 | 0.0 | 4.3 | 0.00 | 0.00 | 0.00 | 75 | 1012.2 |
| 20260507083038 | 55 | 0 | 0.9 | 4.3 | 0.00 | 0.00 | 0.00 | 75 | 1012.3 |
| 20260507082517 | 55 | 82 | 1.7 | 4.3 | 0.00 | 0.00 | 0.00 | 72 | 1012.3 |
| 20260507082016 | 54 | 0 | 1.7 | 5.2 | 0.00 | 0.00 | 0.00 | 72 | 1012.3 |
| 20260507081532 | 54 | 67 | 1.7 | 5.2 | 0.00 | 0.00 | 0.00 | 72 | 1012.3 |
| 20260507081016 | 54 | 57 | 0.9 | 4.3 | 0.00 | 0.00 | 0.00 | 73 | 1012.2 |
| 20260507080516 | 54 | 0 | 0.9 | 4.3 | 0.00 | 0.00 | 0.00 | 72 | 1012.2 |
| 20260507080037 | 54 | 53 | 1.7 | 6.1 | 0.00 | 0.00 | 0.00 | 72 | 1012.3 |
| 20260507075516 | 54 | 31 | 1.7 | 6.1 | 0.00 | 0.00 | 0.00 | 71 | 1012.2 |
| 20260507075016 | 54 | 57 | 1.7 | 6.1 | 0.00 | 0.00 | 0.00 | 72 | 1012.1 |
| 20260507074532 | 54 | 76 | 2.6 | 7.8 | 0.00 | 0.00 | 0.00 | 72 | 1012.2 |
| 20260507074015 | 54 | 0 | 0.9 | 7.8 | 0.00 | 0.00 | 0.00 | 72 | 1012.1 |
| 20260507073516 | 54 | 47 | 3.5 | 7.8 | 0.00 | 0.00 | 0.00 | 73 | 1012.1 |
| 20260507073032 | 54 | 93 | 2.6 | 7.0 | 0.00 | 0.00 | 0.00 | 73 | 1012.1 |
| 20260507072516 | 54 | 69 | 1.7 | 7.0 | 0.00 | 0.00 | 0.00 | 73 | 1012.2 |
| 20260507072015 | 54 | 52 | 2.6 | 7.8 | 0.00 | 0.00 | 0.00 | 72 | 1012.2 |
| 20260507071540 | 55 | 86 | 3.5 | 8.7 | 0.00 | 0.00 | 0.00 | 72 | 1012.2 |
| 20260507071022 | 54 | 39 | 3.5 | 8.7 | 0.00 | 0.00 | 0.00 | 72 | 1012.0 |
| 20260507070516 | 55 | 55 | 4.3 | 9.6 | 0.00 | 0.00 | 0.00 | 72 | 1011.9 |
| 20260507070034 | 54 | 65 | 3.5 | 9.6 | 0.00 | 0.00 | 0.00 | 74 | 1011.9 |
| 20260507065517 | 53 | 69 | 2.6 | 9.6 | 0.00 | 0.00 | 0.00 | 74 | 1011.9 |
| 20260507065015 | 53 | 52 | 3.5 | 9.6 | 0.00 | 0.00 | 0.00 | 74 | 1011.9 |
| 20260507064532 | 53 | 76 | 4.3 | 8.7 | 0.00 | 0.00 | 0.00 | 74 | 1011.7 |
| 20260507064018 | 53 | 45 | 2.6 | 7.8 | 0.00 | 0.00 | 0.00 | 74 | 1011.7 |
| 20260507063516 | 53 | 69 | 4.3 | 8.7 | 0.00 | 0.00 | 0.00 | 75 | 1011.7 |
| 20260507063032 | 53 | 51 | 4.3 | 9.6 | 0.00 | 0.00 | 0.00 | 74 | 1011.6 |
| 20260507062516 | 52 | 71 | 4.3 | 9.6 | 0.00 | 0.00 | 0.00 | 75 | 1011.6 |
| 20260507062017 | 52 | 90 | 4.3 | 10.4 | 0.00 | 0.00 | 0.00 | 75 | 1011.6 |
| 20260507061530 | 52 | 62 | 3.5 | 10.4 | 0.00 | 0.00 | 0.00 | 76 | 1011.5 |
| 20260507061017 | 51 | 88 | 3.5 | 10.4 | 0.00 | 0.00 | 0.00 | 76 | 1011.6 |
| 20260507060516 | 51 | 66 | 3.5 | 9.6 | 0.00 | 0.00 | 0.00 | 78 | 1011.4 |
| 20260507060030 | 50 | 71 | 2.6 | 9.6 | 0.00 | 0.00 | 0.00 | 78 | 1011.4 |
| 20260507055517 | 50 | 69 | 3.5 | 9.6 | 0.00 | 0.00 | 0.00 | 78 | 1011.4 |
| 20260507055015 | 50 | 94 | 2.6 | 8.7 | 0.00 | 0.00 | 0.00 | 79 | 1011.3 |